User: anonymous   Login
Location: Town of Saratoga
(43.0654°N, 73.6496°W)
Time: 13:07:04
(UTC+00:00)
Language:

Envisat - Orbit

View from above orbital plane
View from above orbital plane
View from above satellite
View from above satellite

Ground track
Ground track

The orbit data is extracted from the following two-line orbital elements,

1 27386U 02009A   24053.91078610  .00000218  00000-0  85128-4 0  9992
2 27386  98.2676  19.1028 0001318  91.4564 329.7201 14.38507054152008
Epoch (UTC): 22 February 2024 21:51:31
Eccentricity: 0.0001318
inclination: 98.2676°
perigee height: 762 km
apogee height: 764 km
right ascension of ascending node: 19.1028°
argument of perigee: 91.4564°
revolutions per day: 14.38507054
mean anomaly at epoch: 329.7201°
orbit number at epoch: 15200

The dashed part of the orbit path shows where the satellite is in the earth's shadow,  

DLR